sat.trackr.live / text

‹ back to catalog

STARLINK-32133

NORAD 60333 · 2024-136E

PAYLOAD ACTIVE UNKNOWN

§ Identity

Operator
Country
US
Launch date
2024-08-02
Launch site
AFETR
Launch vehicle
Mass (kg)
RCS (m²)

Purposes: comms

External: N2YO · Heavens-Above · Gunter

§ Orbital elements

Epoch: 2026-05-25T02:58:18.416928Z

Period
94.11 min
Inclination
53.1611°
Eccentricity
0.0001014
Mean motion
15.30165879 rev/d
Perigee alt
474.6 km
Apogee alt
476.0 km
Semi-major
6,853.5 km
B*
-1.2351e-4
RAAN
80.8753°
Arg perigee
89.6629°
Mean anomaly
270.4488°
Rev number
10,136

§ Raw data

STARLINK-321331 60333U 24136E   26145.12382427 -.00004011  00000+0 -12351-3 0  99902 60333  53.1611  80.8753 0001014  89.6629 270.4488 15.30165879101360

JSON: /api/v1/satellites/60333 · /tle

For live sub-satellite position, see the globe view (requires WebGL).

§ Visibility from observer

Set your observer location to see the next 7 days of passes ≥ 10°. The values pass through the URL so the page stays shareable.

No JS? Fill the form by hand. The geolocation button needs JavaScript.